[[{"header":{"parameterUnit":"m.s-1","parameterCategory":1,"la1":30.2991,"la2":30.254,"lo1":-89.0895,"lo2":-89.0444,"dy":0.0017,"dx":0.0017,"nx":28,"ny":28,"refTime":"2026-02-14T09:00:00:Z","depth":0,"parameterNumber":2,"parameterNumberName":"U-component_of_WINDS"},"data":[0,0,0,0,0,0,0,0,0,0,0,0,0,0,0,0,0,0,0,0,0,0,0,0,0,0,0,0,0,0,0,0,0,0,0,0,0,0,0,0,0,0,0,0,0,0,0,0,0,0,0,0,0,0,0,0,0,0,5.3727,5.3728,0,5.3841,5.3842,5.3844,5.3839,5.3837,5.3836,5.3834,5.3951,5.3955,5.396,0,0,0,0,0,0,0,0,0,0,0,0,0,5.3507,5.3511,5.3727,5.3728,5.373,5.3841,5.3842,5.3844,5.3839,5.3837,5.3835,5.3834,5.3949,5.3955,5.396,0,0,0,0,0,0,0,0,0,0,0,0,0,5.361,5.3513,5.3727,5.3741,5.3743,5.384,5.3842,5.3844,5.384,5.3837,5.3835,5.3833,5.3948,5.3954,5.3961,5.4052,0,0,5.3982,5.3985,0,0,0,0,0,0,0,0,5.3604,5.3618,5.3737,5.374,5.3743,5.3823,5.3808,5.3914,5.384,5.3803,5.3834,5.3832,5.391,5.392,5.3947,5.4057,5.4062,5.3983,5.3987,5.399,5.3992,0,0,0,0,0,0,0,5.3597,5.3613,5.3772,5.3739,5.3743,5.3742,5.3754,5.3828,5.3869,5.3806,5.3806,5.382,5.3912,5.394,5.395,5.4064,5.3983,5.3989,5.3993,5.3996,5.4257,5.426,0,0,0,0,0,0,5.3587,5.3607,5.3768,5.3775,5.3666,5.3748,5.3761,5.38,5.3868,5.3876,5.3822,5.3819,5.393,5.3942,5.3954,5.4066,5.399,5.3996,5.4,5.4255,5.4258,5.4261,0,0,0,0,0,0,5.3582,5.3601,5.3764,5.3692,5.3712,5.3754,5.3798,5.3803,5.3832,5.388,5.3887,5.3843,5.3928,5.3944,5.4028,5.407,5.3999,5.4006,5.4251,5.4256,5.426,5.4291,0,0,0,0,0,0,5.3576,5.36,5.3634,5.3692,5.3716,5.3836,5.38,5.3807,5.3844,5.3842,5.3902,5.391,5.3928,5.4018,5.4035,5.4079,5.4011,5.4248,5.4253,5.4258,5.4286,5.4296,5.4304,0,0,0,0,0,5.3568,5.3637,5.3636,5.3655,5.376,5.3838,5.3852,5.3871,5.3847,5.3883,5.3914,5.3908,5.4063,5.4026,5.4046,5.4092,5.4245,5.4252,5.4258,5.4283,5.4294,5.4304,0,0,0,0,0,0,5.3582,5.3645,5.3644,5.3734,5.3781,5.3837,5.3882,5.3882,5.3936,5.3932,5.3954,5.3967,5.4052,5.408,5.4039,5.4185,5.4151,5.4162,5.4163,5.4175,5.4183,5.4175,5.4017,0,0,0,0,0,5.3596,5.3654,5.3706,5.3781,5.3805,5.384,5.3874,5.3885,5.3935,5.3954,5.3991,5.404,5.41,5.4138,5.4196,5.429,5.4305,5.4332,5.4341,5.4348,5.4357,5.4412,5.4425,5.4282,5.4282,5.4282,0,0,5.3624,5.3666,5.3701,5.3785,5.3822,5.3883,5.3856,5.3921,5.3967,5.3964,5.4047,5.4076,5.4131,5.4222,5.4263,5.4248,5.4399,5.4356,5.4361,5.4366,5.4419,5.4433,5.4445,5.4286,5.4285,5.4285,0,0,5.3708,5.3745,5.3812,5.3851,5.3909,5.3932,5.3948,5.4006,5.4025,5.4108,5.4108,5.4163,5.4265,5.4306,5.4339,5.4442,5.4439,5.446,5.4505,5.4559,5.457,5.458,5.4619,5.4632,5.4468,5.4468,5.4469,0,5.3737,5.3828,5.3847,5.3913,5.3951,5.3952,5.4022,5.4059,5.4132,5.4158,5.414,5.427,5.4307,5.4408,5.4434,5.446,5.4481,5.4453,5.4567,5.4577,5.4587,5.4624,5.4638,5.4471,5.4471,5.447,5.447,0,5.3861,5.3925,5.3973,5.4045,5.4088,5.4155,5.4186,5.4227,5.4235,5.426,5.4346,5.4391,5.4459,5.4484,5.4491,5.4587,5.4576,5.4562,5.4529,5.4603,5.4638,5.4652,5.4474,5.4473,5.4473,5.4472,0,0,5.3956,5.404,5.4057,5.4091,5.4156,5.4206,5.4274,5.4341,5.4377,5.4428,5.4487,5.4575,5.4563,5.4602,5.4614,5.4661,5.4742,5.4641,5.4643,5.466,5.4853,5.4864,5.488,5.474,5.4743,5.4745,5.4849,0,5.4049,5.417,5.4191,5.4297,5.4358,5.4361,5.4421,5.4468,5.4494,5.455,5.4578,5.4641,5.4619,5.4643,5.4689,5.4722,5.4781,5.4715,5.4797,5.4799,5.4784,5.4898,5.491,5.5005,5.4862,5.4865,5.4866,0,5.4172,5.4228,5.4341,5.44,5.4426,5.448,5.4544,5.4597,5.4651,5.4667,5.4711,5.4719,5.4791,5.4754,5.4856,5.481,5.4845,5.4866,5.4871,5.488,5.4838,5.4912,5.5036,5.5051,5.4888,5.4886,5.4885,0,5.4233,5.4336,5.4418,5.4446,5.4517,5.4555,5.4586,5.4637,5.4677,5.4734,5.476,5.4824,5.4859,5.4909,5.4934,5.4905,5.5035,5.5,5.5052,5.5051,5.5079,5.5078,5.5212,5.51,5.5099,5.5099,5.5099,0,5.4335,5.4404,5.4446,5.4497,5.4576,5.4599,5.4676,5.4707,5.4753,5.481,5.4817,5.487,5.49,5.4958,5.4978,5.5061,5.5076,5.5092,5.5097,5.5092,5.5091,5.5116,5.5111,5.5103,5.5102,5.5101,5.5101,0,5.4416,5.4447,5.4537,5.4597,5.4613,5.4669,5.4721,5.4771,5.4797,5.487,5.4888,5.493,5.4999,5.5029,5.5114,5.5128,5.5223,5.5222,5.5205,5.5207,5.5258,5.5253,5.5415,5.5438,5.5309,5.531,5.5311,0,5.448,5.4534,5.46,5.4639,5.4672,5.4734,5.4775,5.4801,5.4844,5.4911,5.4953,5.5022,5.5079,5.519,5.5229,5.5295,5.5296,5.5349,5.5306,5.5301,5.53,5.5297,5.5303,5.5357,5.5358,5.5359,5.536,0,5.459,5.4603,5.4662,5.4728,5.4777,5.483,5.4881,5.4913,5.4946,5.4994,5.5066,5.511,5.5198,5.5268,5.5336,5.5369,5.5371,5.5373,5.5389,5.5385,5.5374,5.5383,5.5228,5.5369,5.5368,5.5367,5.5367,5.5367,5.4666,5.4715,5.477,5.4837,5.4878,5.4927,5.4977,5.5011,5.5071,5.5145,5.5156,5.5233,5.5288,5.538,5.5416,5.5477,5.5464,5.5486,5.5492,5.5498,5.5502,5.5363,5.5489,5.5489,5.5489,5.5488,5.5488,0,5.4779,5.4815,5.4875,5.4948,5.5001,5.4998,5.5055,5.51,5.5167,5.5218,5.5275,5.5358,5.5426,5.5471,5.554,5.5581,5.5584,5.5598,5.5596,5.5604,5.5509,5.5489,5.5595,5.5595,5.5595,5.5595,5.5595,5.5595,5.4843,5.4927,5.4947,5.5052,5.5088,5.5164,5.5197,5.5242,5.5283,5.5376,5.5433,5.5462,5.5511,5.5584,5.5647,5.5659,5.5685,5.5701,5.5712,5.5622,5.5611,5.56,5.5582,5.5706,5.5706,5.5802,5.5803,5.5804]},{"header":{"parameterUnit":"m.s-1","parameterCategory":1,"la1":30.2991,"la2":30.254,"lo1":-89.0895,"lo2":-89.0444,"dy":0.0017,"dx":0.0017,"nx":28,"ny":28,"refTime":"2026-02-14T09:00:00:Z","depth":0,"parameterNumber":3,"parameterNumberName":"V-component_of_WINDS"},"data":[0,0,0,0,0,0,0,0,0,0,0,0,0,0,0,0,0,0,0,0,0,0,0,0,0,0,0,0,0,0,0,0,0,0,0,0,0,0,0,0,0,0,0,0,0,0,0,0,0,0,0,0,0,0,0,0,0,0,-3.0218,-3.0217,0,-3.0195,-3.0195,-3.0195,-3.0215,-3.0216,-3.0216,-3.0217,-3.0188,-3.0187,-3.0185,0,0,0,0,0,0,0,0,0,0,0,0,0,-3.0273,-3.0272,-3.0218,-3.0217,-3.0217,-3.0195,-3.0195,-3.0194,-3.0215,-3.0216,-3.0217,-3.0218,-3.0189,-3.0187,-3.0185,0,0,0,0,0,0,0,0,0,0,0,0,0,-3.025,-3.0272,-3.0218,-3.0225,-3.0225,-3.0195,-3.0195,-3.0194,-3.0214,-3.0216,-3.0217,-3.0218,-3.0189,-3.0187,-3.0185,-3.0145,0,0,-3.0177,-3.0176,0,0,0,0,0,0,0,0,-3.0251,-3.0248,-3.0224,-3.0224,-3.0225,-3.0209,-3.0204,-3.0178,-3.0214,-3.0218,-3.0217,-3.0219,-3.0194,-3.0191,-3.0184,-3.0143,-3.0142,-3.0177,-3.0176,-3.0175,-3.0174,0,0,0,0,0,0,0,-3.0253,-3.0249,-3.0209,-3.0224,-3.0224,-3.0227,-3.0225,-3.0199,-3.0199,-3.0218,-3.0219,-3.0217,-3.0194,-3.0186,-3.0183,-3.0142,-3.0177,-3.0175,-3.0174,-3.0173,-3.0068,-3.0066,0,0,0,0,0,0,-3.0254,-3.025,-3.0209,-3.0208,-3.0241,-3.0225,-3.0223,-3.0213,-3.0199,-3.0199,-3.0216,-3.0218,-3.0189,-3.0186,-3.0182,-3.0135,-3.0175,-3.0173,-3.0171,-3.0069,-3.0067,-3.0066,0,0,0,0,0,0,-3.0255,-3.025,-3.021,-3.0229,-3.0225,-3.0223,-3.0211,-3.0212,-3.0204,-3.0198,-3.0197,-3.0208,-3.019,-3.0186,-3.0154,-3.0134,-3.0172,-3.0169,-3.0071,-3.0069,-3.0067,-3.004,0,0,0,0,0,0,-3.0257,-3.0251,-3.0237,-3.0229,-3.0223,-3.0184,-3.021,-3.021,-3.02,-3.0203,-3.019,-3.0189,-3.0191,-3.0158,-3.0152,-3.0132,-3.0168,-3.0072,-3.007,-3.0067,-3.0042,-3.0037,-3.0032,0,0,0,0,0,-3.0259,-3.0229,-3.0236,-3.0231,-3.0206,-3.0183,-3.018,-3.0184,-3.0199,-3.0184,-3.018,-3.019,-3.0138,-3.0155,-3.0148,-3.0127,-3.0074,-3.0071,-3.0068,-3.0045,-3.0038,-3.0033,0,0,0,0,0,0,-3.0232,-3.0228,-3.0236,-3.0202,-3.0193,-3.0186,-3.0168,-3.0177,-3.0161,-3.0164,-3.0168,-3.0165,-3.0132,-3.0126,-3.0145,-3.0088,-3.0108,-3.0103,-3.0093,-3.0086,-3.0081,-3.0083,-3.0166,0,0,0,0,0,-3.0222,-3.0206,-3.0202,-3.0173,-3.0168,-3.0169,-3.0159,-3.0163,-3.0153,-3.0148,-3.0142,-3.013,-3.0112,-3.0099,-3.0081,-3.0042,-3.0039,-3.0024,-3.0019,-3.0015,-3.0011,-2.999,-2.9983,-3.0056,-3.0056,-3.0056,0,0,-3.0202,-3.0197,-3.0186,-3.0168,-3.0161,-3.0142,-3.0165,-3.0144,-3.013,-3.0144,-3.0115,-3.0111,-3.0097,-3.0062,-3.0047,-3.0056,-2.999,-3.0011,-3.0008,-3.0006,-2.9986,-2.9979,-2.9973,-3.0054,-3.0054,-3.0054,0,0,-3.0155,-3.015,-3.0126,-3.0119,-3.011,-3.011,-3.0105,-3.0097,-3.0095,-3.0066,-3.0077,-3.0059,-3.0026,-3.0017,-3.0008,-2.9958,-2.9966,-2.9952,-2.9926,-2.9905,-2.9899,-2.9894,-2.9876,-2.9869,-2.9948,-2.9948,-2.9948,0,-3.013,-3.0103,-3.0111,-3.009,-3.0081,-3.0096,-3.0071,-3.0063,-3.0047,-3.004,-3.0052,-3.0012,-3.0004,-2.9967,-2.9956,-2.9948,-2.994,-2.9953,-2.99,-2.9895,-2.989,-2.9873,-2.9866,-2.9946,-2.9947,-2.9947,-2.9947,0,-3.0073,-3.0055,-3.0036,-3.0023,-3.0012,-2.9988,-2.9991,-2.9979,-2.9984,-2.9984,-2.9954,-2.9945,-2.9926,-2.9918,-2.9922,-2.9881,-2.9888,-2.99,-2.992,-2.9881,-2.9865,-2.9859,-2.9944,-2.9945,-2.9945,-2.9946,0,0,-3.0007,-3.0,-2.9993,-2.9987,-2.9978,-2.9963,-2.994,-2.9924,-2.9913,-2.9902,-2.9882,-2.9854,-2.9866,-2.9855,-2.9859,-2.9841,-2.9802,-2.9855,-2.9854,-2.9845,-2.9756,-2.9746,-2.9739,-2.9808,-2.9807,-2.9806,-2.9757,0,-2.9959,-2.9921,-2.9928,-2.9891,-2.9873,-2.9888,-2.9868,-2.9859,-2.9858,-2.9842,-2.984,-2.982,-2.9837,-2.9831,-2.9814,-2.981,-2.9784,-2.9814,-2.9787,-2.9786,-2.979,-2.973,-2.972,-2.9674,-2.975,-2.9749,-2.9749,0,-2.9898,-2.9888,-2.9849,-2.9843,-2.9836,-2.9818,-2.9804,-2.9789,-2.9779,-2.978,-2.9769,-2.9776,-2.9751,-2.9773,-2.9739,-2.9759,-2.9749,-2.9745,-2.9743,-2.974,-2.9764,-2.9725,-2.966,-2.9653,-2.9739,-2.974,-2.974,0,-2.9854,-2.9829,-2.9803,-2.9797,-2.9791,-2.9778,-2.9774,-2.9766,-2.9756,-2.9743,-2.9736,-2.9719,-2.971,-2.9696,-2.9698,-2.9714,-2.9663,-2.9685,-2.9661,-2.9661,-2.9648,-2.9649,-2.958,-2.9643,-2.9643,-2.9643,-2.9644,0,-2.9799,-2.9775,-2.9783,-2.9766,-2.9739,-2.9747,-2.9719,-2.9717,-2.971,-2.9692,-2.9703,-2.9686,-2.969,-2.9673,-2.9674,-2.9645,-2.964,-2.9639,-2.9639,-2.9637,-2.9638,-2.963,-2.9633,-2.9642,-2.9642,-2.9642,-2.9643,0,-2.9744,-2.9749,-2.9721,-2.9718,-2.9716,-2.9696,-2.9692,-2.9676,-2.9677,-2.9654,-2.9649,-2.9649,-2.9629,-2.963,-2.9607,-2.9608,-2.9572,-2.9576,-2.9576,-2.9577,-2.9553,-2.9555,-2.9476,-2.9466,-2.9536,-2.9535,-2.9535,0,-2.9709,-2.9691,-2.9686,-2.9676,-2.9672,-2.9656,-2.9646,-2.9653,-2.9642,-2.9631,-2.9616,-2.9598,-2.9583,-2.955,-2.9547,-2.9529,-2.9533,-2.9506,-2.953,-2.9529,-2.9531,-2.9532,-2.953,-2.9501,-2.9501,-2.95,-2.9499,0,-2.9646,-2.9649,-2.9636,-2.9623,-2.9612,-2.9602,-2.9593,-2.9584,-2.959,-2.9577,-2.9558,-2.9547,-2.9525,-2.9506,-2.9489,-2.9483,-2.9491,-2.9492,-2.9486,-2.9483,-2.9483,-2.9482,-2.9562,-2.9494,-2.9494,-2.9495,-2.9495,-2.9495,-2.9599,-2.9584,-2.9578,-2.9563,-2.9558,-2.9549,-2.9534,-2.9534,-2.9519,-2.9502,-2.9507,-2.9485,-2.9476,-2.9455,-2.9448,-2.943,-2.9439,-2.943,-2.9427,-2.9424,-2.9422,-2.9487,-2.9427,-2.9427,-2.9427,-2.9427,-2.9428,0,-2.9536,-2.9534,-2.952,-2.9508,-2.9496,-2.9508,-2.9498,-2.9487,-2.9468,-2.946,-2.9447,-2.9424,-2.9407,-2.9403,-2.9385,-2.9371,-2.9375,-2.9366,-2.9367,-2.9365,-2.9415,-2.9422,-2.9364,-2.9364,-2.9364,-2.9364,-2.9364,-2.9364,-2.9501,-2.9476,-2.9479,-2.9451,-2.9449,-2.9429,-2.9423,-2.9415,-2.9408,-2.9384,-2.937,-2.9369,-2.9362,-2.9344,-2.9328,-2.9327,-2.9319,-2.9309,-2.931,-2.9356,-2.9362,-2.9368,-2.9375,-2.9308,-2.9308,-2.9262,-2.9261,-2.9261]}]]